カタログに戻る

CZ-6A DEB

運用中PO
NORAD 61471·DEBRIS·🇨🇳 China

打ち上げ Aug 6, 2024 から Taiyuan Satellite Launch Center

Loading…

次のパス (今後24時間)

TLE

最新Source: Space-Track

元期: Sep 14, 2026, 10:50 UTC

1 61471U 24140AAD 26257.45204415  .00001905  00000-0  99072-3 0  9992
2 61471  88.9044 257.7891 0102267 275.2519  83.7003 14.11693301102588

AllMySatでCZ-6A DEBをリアルタイム追跡

Download on the App Store